Regional Weather Roundup
Issued by NWS

Home | Current Version | Previous Version | Graphics & Text | Print | Product List | Glossary On
Versions: 1 2 3 4 5 6 7 8 9 10 11 12 13 14 15 16 17 18 19 20 21 22 23 24 25 26 27 28 29 30 31 32 33 34 35 36 37 38 39 40 41 42 43 44 45 46 47 48 49 50
000
ASUS43 KDTX 022010
RWRMI
MICHIGAN HOURLY REGIONAL WEATHER ROUNDUP
NATIONAL WEATHER SERVICE DETROIT/PONTIAC MI
400 PM EDT SUN AUG 02 2015

NOTE: "FAIR" INDICATES FEW OR NO CLOUDS BELOW 12,000 FEET WITH NO
SIGNIFICANT WEATHER AND/OR OBSTRUCTION TO VISIBILITY.

MIZ047>049-052>055-059>063-066>070-074>076-081>083-022100-
SOUTHEAST LOWER MICHIGAN

CITY           SKY/WX    TMP DP  RH WIND       PRES   REMARKS
ADRIAN         SUNNY     88  62  41 W13G30    29.79F
ALMA           CLOUDY    86  66  50 SW21G31   29.67S
ANN ARBOR      SUNNY     89  61  38 W21G30    29.76F
BAD AXE        RAIN      67  64  91 S10       29.71F
DETROIT CITY   SUNNY     90  59  35 SW23G31   29.74F
DETROIT        MOSUNNY   92  61  35 SW24G31   29.76F HX  92
FLINT          MOSUNNY   93  60  33 W22G35    29.72R HX  93
GROSSE ILE     SUNNY     90  61  37 SW16G26   29.75F
HILLSDALE      MOSUNNY   88  65  45 SW13G22   29.80F HX  90
HOWELL         SUNNY     90  61  37 SW23G31   29.74F

CITY           SKY/WX    TMP DP  RH WIND       PRES   REMARKS
JACKSON        SUNNY     88  66  48 SW21G29   29.76F HX  90
LAMBERTVILLE   SUNNY     89  60  37 SW14G23   29.80F
LANSING        MOSUNNY   91  61  36 SW23G41   29.72F HX  91
LAPEER         NOT AVBL
MASON          SUNNY     86  64  47 SW16G24   29.74F
MONROE         SUNNY     88  63  42 SW22G29   29.76F
MT. CLEMENS    PTSUNNY   92  60  34 SW16G28   29.71F HX  91
PONTIAC        MOSUNNY   90  61  37 W16G30    29.75S HX  90
PORT HURON     MOSUNNY   86  63  45 SW6G16    29.73S
TRI CITIES     PTSUNNY   83  70  64 SW8       29.66F
YPSILANTI      SUNNY     96  61  31 SW22G29   29.76F HX  96
$$
MIZ043>046-050>051-056>058-064>065-071>073-077>080-022100-
SOUTHWEST LOWER MICHIGAN

CITY           SKY/WX    TMP DP  RH WIND       PRES   REMARKS
BATTLE CREEK   SUNNY     92  64  39 SW23G35   29.75F HX  93
BENTON HARBOR  SUNNY     92  64  39 SW20G28   29.74F HX  93
BIG RAPIDS     MOSUNNY   85  67  56 SW22G29   29.61F
COLDWATER      MOSUNNY   86  64  47 SW21G28   29.79F
HOLLAND        SUNNY     90  65  43 SW26G36   29.70F HX  92
GRAND RAPIDS   MOSUNNY   90  64  42 SW29G38   29.69F HX  91
KALAMAZOO      SUNNY     91  64  40 SW15G30   29.75F HX  92
MARSHALL       MOSUNNY   90  67  45 SW15G24   29.75F HX  93
MUSKEGON       MOSUNNY   86  66  51 S24G38    29.64F
$$
MIZ016>042-022100-
NORTHERN LOWER MICHIGAN

CITY           SKY/WX    TMP DP  RH WIND       PRES   REMARKS
ALPENA         CLOUDY    69  62  78 NW6       29.66R
BEAVER ISLAND  LGT RAIN  66  64  90 W7        29.64R
BELLAIRE       CLOUDY    70  63  78 SE5       29.59F
CADILLAC       PTSUNNY   84  68  58 SW14G31   29.59F
CHARLEVOIX     CLOUDY    68  64  87 SW5       29.63F
FRANKFORT      CLOUDY    79  70  74 S10       29.55F
GRAYLING       RAIN      65  62  89 W5        29.64F
HARBOR SPRINGS LGT RAIN  67  65  94 CALM      29.56F
HOUGHTON LAKE  PTSUNNY   79  69  71 N8        29.65S
MANISTEE       PTSUNNY   84  70  61 SW13G25   29.55F
OSCODA         CLOUDY    68  64  89 S6        29.66R
PELLSTON       CLOUDY    68  65  90 S5        29.57F
TRAVERSE CITY  CLOUDY    72  67  84 E8        29.55F
$$
MIZ007>008-015-022100-
EASTERN UPPER MICHIGAN

CITY           SKY/WX    TMP DP  RH WIND       PRES   REMARKS
KINROSS        CLOUDY    66  63  88 SW5       29.56F
MACKINAC ISLAN LGT RAIN  66  66 100 E9        29.49F
NEWBERRY       LGT RAIN  66  65  95 S8        29.56F
S. S. MARIE    CLOUDY    70  64  81 W7        29.57F
$$
MIZ004>006-011>014-085-022100-
CENTRAL UPPER MICHIGAN

CITY           SKY/WX    TMP DP  RH WIND       PRES   REMARKS
MANISTIQUE     LGT RAIN  64  63  94 S9        29.58F
ESCANABA       CLOUDY    64  63  94 N6        29.53F
MENOMINEE      CLOUDY    63  57  82 CALM      29.58R
SAWYER-GWINN   DRIZZLE   66  63  88 NW9       29.59S
$$
MIZ001>003-009>011-084-022100-
WESTERN UPPER MICHIGAN

CITY           SKY/WX    TMP DP  RH WIND       PRES   REMARKS
IRON MOUNTAIN  CLOUDY    68  61  78 NW5       29.58F
HOUGHTON       MOSUNNY   72  57  59 W16G22    29.59F
COPPER HARBOR    N/A     69  60  73 N12       29.58S
IRONWOOD       PTSUNNY   70  61  73 NW9G17    29.62R
$$

ABBREVIATIONS USED IN REMARKS
   TC - TEMPERATURE IN CELSIUS
  WCI - WIND CHILL INDEX
   HX - HEAT INDEX
  VSB - VISIBILITY



USA.gov is the U.S. government's official web portal to all federal, state and local government web resources and services.